Regional Weather Roundup
Issued by NWS

Home | Current Version | Previous Version | Text Only | Print | Product List | Glossary On
Versions: 1 2 3 4 5 6 7 8 9 10 11 12 13 14 15 16 17 18 19 20 21 22 23 24 25 26 27 28 29 30 31 32 33 34 35 36 37 38 39 40 41 42 43 44 45 46 47 48 49 50
000
ASUS43 KMPX 192310
RWRMN
WEATHER ROUNDUP FOR MINNESOTA
NATIONAL WEATHER SERVICE TWIN CITIES/CHANHASSEN MN
600 PM CDT THU OCT 19 2017


NOTE: "FAIR" INDICATES FEW OR NO CLOUDS BELOW 12,000 FEET WITH NO
SIGNIFICANT WEATHER AND/OR OBSTRUCTIONS TO VISIBILITY. N/A MEANS
CURRENT SKY AND/OR WEATHER CONDITIONS ARE NOT AVAILABLE.

MNZ060>063-068>070-200000-
   Twin Cities Metro

CITY           SKY/WX    TMP DP  RH WIND       PRES   REMARKS
TWIN CITIES    PTCLDY    71  36  27 S10       29.95S
ST PAUL        CLEAR     67  37  33 SE10      29.96R
CRYSTAL        CLEAR     69  34  27 S9        29.93S
BLAINE         PTCLDY    70  36  28 S10       29.94S
LAKEVILLE      CLEAR     66  37  34 S10G17    29.96S
EDEN PRAIRIE   CLEAR     69  37  30 S15       29.94R
SOUTH ST PAUL  CLEAR     69  35  27 S8        29.95S
LAKE ELMO      FAIR      66  37  34 S10       29.97S
$$
MNZ001>005-007-008-013>017-022>024-027-028-200000-
   Northwest Minnesota

CITY           SKY/WX    TMP DP  RH WIND       PRES   REMARKS
BEMIDJI        CLEAR     66  38  34 S6        29.82S
HALLOCK        CLEAR     66  34  30 S13       29.70S
ROSEAU         CLEAR     64  39  39 S12       29.74S
WARROAD        CLEAR     66  43  42 S6        29.75S
THIEF RVR FALL CLEAR     68  39  34 S10       29.76S
CROOKSTON      CLEAR     70  37  30 SW12      29.75S
FOSSTON        CLEAR     66  39  37 S12       29.79S
DETROIT LAKES  CLEAR     68  41  37 S7        29.83S
MOORHEAD       CLEAR     72  39  30 S9        29.78S
PARK RAPIDS    CLEAR     66  39  37 S10       29.84S
MAHNOMEN       FAIR      67  41  39 S13       29.80R
$$
MNZ006-009>011-018-025>026-200000-
   North Central Minnesota

CITY           SKY/WX    TMP DP  RH WIND       PRES   REMARKS
BAUDETTE       CLEAR     64  38  38 S7        29.76F
FLAG ISLAND    CLOUDY    55  45  67 S9        29.73S
INTL FALLS     CLOUDY    63  35  35 SE5       29.80F
WASKISH        CLEAR     68  37  32 S5        29.80R
BIG FORK       CLEAR     64  36  34 S6        29.84R
LONGVILLE      CLEAR     66  34  30 SE9       29.86R
GRAND RAPIDS   CLEAR     65  35  33 S9        29.88S
CRANE LAKE     CLOUDY    55  37  50 CALM      29.85F
ORR            CLOUDY    64  28  25 S7        29.82S
COOK           CLOUDY    64  34  32 S8        29.86S
WALKER         FAIR      67  36  32 S6        29.84R
$$
MNZ012-019>021-037-200000-
   Northeast Minnesota

CITY           SKY/WX    TMP DP  RH WIND       PRES   REMARKS
DULUTH         CLOUDY    64  33  31 SW13      29.91F
ELY            CLOUDY    63  30  29 S7        29.88R
HIBBING        CLEAR     63  32  31 S6        29.87S
EVELETH        CLOUDY    63  17  17 S7        29.89R
DULUTH HARBOR  PTCLDY    66  37  34 S8        29.91S
TWO HARBORS    PTCLDY    63  39  42 CALM      29.89F
SILVER BAY     PTCLDY    57  36  44 CALM      29.89F
GRAND MARAIS     N/A     46  39  76 W5        29.92S
G MARAIS ARPRT CLOUDY    54  25  32 S7        29.93S
$$
MNZ029>031-032-039>041-046>048-054>057-064-200000-
   West Central Minnesota

CITY           SKY/WX    TMP DP  RH WIND       PRES   REMARKS
FERGUS FALLS   CLEAR     70  46  43 S8        29.81S
WHEATON        CLEAR     72  45  37 SE7       29.82R
MORRIS         CLEAR     72  46  40 S12       29.82S
ALEXANDRIA     CLEAR     68  44  42 S12       29.86F
ELBOW LAKE     FAIR      68  46  45 S9        29.83S
WADENA         CLEAR     66  41  39 S7        29.84F
GLENWOOD       CLEAR     68  45  42 S10       29.87S
APPLETON       CLEAR     73  43  33 S8        29.82S
BENSON         CLEAR     72  43  35 SW12      29.85F
ORTONVILLE     CLEAR     72  46  40 N6        29.82S
MADISON        CLEAR     75  46  35 S9G17     29.83S
WILLMAR        FAIR      72  45  37 SE9       29.88F
$$
MNZ033>034-036-042>043-049>051-058-059-200000-
   Central Minnesota

CITY           SKY/WX    TMP DP  RH WIND       PRES   REMARKS
ST CLOUD       CLEAR     67  38  34 S14       29.91S
SAUK CENTRE    FAIR      65  43  45 SE7       29.88F
PAYNESVILLE    CLEAR     69  42  37 S12       29.89F
AITKIN         CLEAR     64  34  32 S9        29.88S
PINE RIVER     CLEAR     64  37  36 S7        29.90S
BRAINERD       CLEAR     63  36  36 S9        29.88F
STAPLES        CLEAR     64  36  34 S8        29.86F
LONG PRAIRIE   FAIR      64  41  42 SE10      29.88F
LITTLE FALLS   CLEAR     66  28  24 S7        29.89F
LITCHFIELD     CLEAR     70  39  32 SE6       29.90F
BUFFALO        CLEAR     68  35  28 S5        29.94S
MAPLE LAKE     CLEAR     68  40  35 S8        29.93S
HUTCHINSON     CLEAR     69  43  38 S6        29.92F
$$
MNZ037-044-045-052-053-200000-
   East Central Minnesota

CITY           SKY/WX    TMP DP  RH WIND       PRES   REMARKS
PRINCETON      CLEAR     70  36  28 S6        29.92S
MORA           CLEAR     64  34  32 S9        29.94R
CAMBRIDGE      CLEAR     72  46  40 S9        29.93S
RUSH CITY      PTCLDY    68  35  29 S8        29.93S
MOOSE LAKE     CLEAR     66  37  34 S6        29.90S
HINCKLEY       FAIR      64  37  36 S6        29.92F
CLOQUET        CLOUDY    64  28  25 S6        29.91S
MCGREGOR       CLEAR     64  36  34 S7        29.90S
$$
MNZ071>073-080-081-089-090-097-098-200000-
   Southwest Minnesota

CITY           SKY/WX    TMP DP  RH WIND       PRES   REMARKS
MONTEVIDEO     CLEAR     73  45  35 SW9G17    29.85S
GRANITE FALLS  CLEAR     73  47  39 S15       29.87S
CANBY          CLEAR     73  45  37 S9G17     29.85S
MARSHALL       CLEAR     72  47  40 S14       29.87S
REDWOOD FALLS  CLEAR     71  42  35 S17G25    29.89F
OLIVIA         CLEAR     70  43  37 S12       29.88F
PIPESTONE      CLEAR     70  45  40 S13       29.90S
WORTHINGTON    CLEAR     70  46  42 S12G17    29.94F
JACKSON        PTCLDY    68  41  37 S10G17    29.96F
TRACY          CLEAR     72  47  41 S15       29.89S
SLAYTON        CLEAR     71  46  40 S14G20    29.92S
$$
MNZ065>067-074>077-082>085-091>093-200000-
   South Central Minnesota

CITY           SKY/WX    TMP DP  RH WIND       PRES   REMARKS
MANKATO        CLEAR     68  40  35 S9        29.96S
NEW ULM        CLEAR     68  39  34 S14G21    29.92F
ST JAMES       CLEAR     70  41  35 SE13      29.95F
FAIRMONT       CLEAR     68  44  42 S13       29.96F
GLENCOE        CLEAR     69  38  32 S8        29.92F
FARIBAULT      CLEAR     66  37  34 S12       29.98S
OWATONNA       CLEAR     66  39  37 S12G18    29.99S
WASECA         CLEAR     64  36  34 SE6       30.00S
$$
MNZ078>079-086>088-094>096-200000-
   Southeast Minnesota

CITY           SKY/WX    TMP DP  RH WIND       PRES   REMARKS
ROCHESTER      CLEAR     65  37  35 S12       30.02F
RED WING       CLEAR     70  28  21 S5        29.97F
STANTON        CLEAR     69  35  28 S7        29.96S
DODGE CENTER   CLEAR     64  34  32 S10       30.01F
WINONA         CLEAR     66  36  32 S3        30.03S
AUSTIN         CLEAR     64  34  32 S9        30.01F
PRESTON        CLEAR     64  34  33 S9        30.05F
$$
ABBREVIATIONS USED IN REMARKS
   TC - TEMPERATURES IN CELSIUS
  WCI - WIND CHILL INDEX
   HX - HEAT INDEX
  VSB - VISIBILITY
$$




USA.gov is the U.S. government's official web portal to all federal, state and local government web resources and services.